| time (UTC) | temp F | wind direction | speed knots | gust knots | rain 1hr in | rain 24hr in | rain mn in | humidity % | barometer mb |
| 20260903220337 | 73 | 191 | 0.0 | 0.0 | 0.00 | 0.16 | 0.16 | 85 | 1011.3 |
| 20260903215820 | 73 | 191 | 0.0 | 0.0 | 0.00 | 0.16 | 0.16 | 85 | 1011.3 |
| 20260903214336 | 73 | 191 | 0.0 | 0.0 | 0.00 | 0.16 | 0.16 | 85 | 1011.1 |
| 20260903213336 | 74 | 191 | 0.0 | 0.0 | 0.00 | 0.16 | 0.16 | 84 | 1011.1 |
| 20260903212336 | 74 | 191 | 0.0 | 0.0 | 0.00 | 0.16 | 0.16 | 84 | 1011.3 |
| 20260903211327 | 74 | 191 | 0.0 | 0.0 | 0.00 | 0.16 | 0.16 | 84 | 1011.2 |
| 20260903210326 | 74 | 190 | 0.0 | 0.0 | 0.00 | 0.16 | 0.16 | 85 | 1011.2 |
| 20260903205326 | 74 | 191 | 0.0 | 0.0 | 0.00 | 0.16 | 0.16 | 84 | 1011.2 |
| 20260903204325 | 74 | 191 | 0.0 | 0.0 | 0.00 | 0.16 | 0.16 | 84 | 1011.3 |
| 20260903203804 | 74 | 129 | 0.0 | 0.0 | 0.00 | 0.16 | 0.16 | 84 | 1011.3 |
| 20260903202323 | 74 | 129 | 0.0 | 0.0 | 0.00 | 0.16 | 0.16 | 84 | 1011.3 |
| 20260903201325 | 74 | 129 | 0.0 | 0.0 | 0.00 | 0.16 | 0.16 | 83 | 1011.3 |
| 20260903200806 | 74 | 129 | 0.0 | 0.0 | 0.00 | 0.16 | 0.16 | 83 | 1011.3 |
| 20260903195324 | 73 | 94 | 0.0 | 0.0 | 0.00 | 0.16 | 0.16 | 84 | 1011.6 |
| 20260903194323 | 73 | 155 | 0.0 | 0.0 | 0.00 | 0.16 | 0.16 | 84 | 1011.8 |
| 20260903193325 | 73 | 155 | 0.0 | 0.0 | 0.00 | 0.16 | 0.16 | 84 | 1011.8 |
| 20260903192316 | 73 | 156 | 0.0 | 0.0 | 0.00 | 0.16 | 0.16 | 84 | 1011.9 |
| 20260903191315 | 73 | 161 | 0.0 | 0.0 | 0.00 | 0.16 | 0.16 | 85 | 1011.9 |
| 20260903190315 | 72 | 139 | 0.0 | 0.0 | 0.00 | 0.16 | 0.16 | 85 | 1011.9 |
| 20260903185746 | 72 | 85 | 0.0 | 0.0 | 0.00 | 0.16 | 0.16 | 84 | 1012.3 |
| 20260903184753 | 72 | 59 | 0.9 | 2.6 | 0.00 | 0.16 | 0.16 | 85 | 1012.3 |
| 20260903183311 | 71 | 75 | 0.0 | 2.6 | 0.00 | 0.16 | 0.16 | 85 | 1012.3 |
| 20260903182309 | 71 | 180 | 0.0 | 1.7 | 0.00 | 0.16 | 0.16 | 85 | 1012.4 |
| 20260903181311 | 70 | 152 | 0.9 | 2.6 | 0.00 | 0.16 | 0.16 | 86 | 1012.5 |
| 20260903180309 | 70 | 112 | 0.9 | 1.7 | 0.00 | 0.16 | 0.16 | 87 | 1012.5 |
| 20260903175310 | 69 | 59 | 0.0 | 2.6 | 0.00 | 0.16 | 0.16 | 87 | 1012.8 |
| 20260903174755 | 69 | 59 | 0.0 | 2.6 | 0.00 | 0.16 | 0.16 | 87 | 1012.8 |
| 20260903173311 | 69 | 50 | 0.0 | 2.6 | 0.00 | 0.16 | 0.16 | 88 | 1012.8 |
| 20260903172750 | 69 | 69 | 0.0 | 1.7 | 0.00 | 0.16 | 0.16 | 90 | 1012.9 |
| 20260903171752 | 69 | 71 | 0.0 | 1.7 | 0.00 | 0.16 | 0.16 | 90 | 1012.7 |
| 20260903170310 | 69 | 68 | 0.0 | 1.7 | 0.00 | 0.16 | 0.16 | 91 | 1012.7 |
| 20260903165259 | 68 | 68 | 0.0 | 0.9 | 0.00 | 0.16 | 0.16 | 92 | 1012.8 |
| 20260903164300 | 67 | 68 | 0.0 | 0.9 | 0.00 | 0.16 | 0.16 | 92 | 1012.8 |
| 20260903163300 | 67 | 69 | 0.0 | 1.7 | 0.00 | 0.16 | 0.16 | 93 | 1012.8 |
| 20260903162258 | 67 | 356 | 0.0 | 0.9 | 0.00 | 0.16 | 0.16 | 93 | 1012.9 |
| 20260903161251 | 66 | 301 | 0.0 | 1.7 | 0.00 | 0.16 | 0.16 | 93 | 1012.9 |
| 20260903160729 | 66 | 301 | 0.0 | 2.6 | 0.00 | 0.16 | 0.16 | 93 | 1012.9 |
| 20260903155252 | 66 | 301 | 0.0 | 1.7 | 0.00 | 0.16 | 0.16 | 93 | 1013.0 |
| 20260903154250 | 66 | 301 | 0.0 | 0.9 | 0.00 | 0.16 | 0.16 | 93 | 1013.3 |
| 20260903153235 | 65 | 301 | 0.0 | 0.0 | 0.00 | 0.16 | 0.16 | 94 | 1013.3 |
| 20260903152235 | 65 | 142 | 0.0 | 0.0 | 0.00 | 0.16 | 0.16 | 94 | 1013.6 |
| 20260903151236 | 65 | 143 | 0.0 | 0.0 | 0.00 | 0.16 | 0.16 | 94 | 1013.5 |
| 20260903150235 | 65 | 143 | 0.0 | 0.0 | 0.00 | 0.16 | 0.16 | 94 | 1013.5 |
| 20260903145235 | 64 | 301 | 0.0 | 0.0 | 0.00 | 0.16 | 0.16 | 94 | 1013.7 |
| 20260903144235 | 64 | 301 | 0.0 | 0.0 | 0.00 | 0.16 | 0.16 | 94 | 1013.8 |
| 20260903143728 | 64 | 301 | 0.0 | 0.0 | 0.00 | 0.16 | 0.16 | 93 | 1013.8 |
| 20260903142235 | 64 | 301 | 0.0 | 0.0 | 0.00 | 0.16 | 0.16 | 94 | 1013.8 |
| 20260903141237 | 63 | 301 | 0.0 | 0.0 | 0.00 | 0.16 | 0.16 | 94 | 1014.0 |
| 20260903140219 | 63 | 142 | 0.0 | 0.0 | 0.00 | 0.16 | 0.16 | 94 | 1014.0 |
| 20260903135219 | 63 | 142 | 0.0 | 0.0 | 0.00 | 0.16 | 0.16 | 94 | 1014.3 |
| 20260903134219 | 62 | 301 | 0.0 | 0.0 | 0.00 | 0.16 | 0.16 | 94 | 1014.1 |
| 20260903133219 | 62 | 301 | 0.0 | 0.0 | 0.00 | 0.16 | 0.16 | 93 | 1014.1 |
| 20260903132220 | 62 | 301 | 0.0 | 0.0 | 0.00 | 0.16 | 0.16 | 93 | 1014.0 |
| 20260903131210 | 62 | 301 | 0.0 | 0.0 | 0.00 | 0.16 | 0.16 | 93 | 1014.2 |
| 20260903130209 | 62 | 301 | 0.0 | 0.0 | 0.00 | 0.16 | 0.16 | 93 | 1014.2 |
| 20260903125209 | 62 | 301 | 0.0 | 0.0 | 0.00 | 0.16 | 0.16 | 93 | 1014.3 |
| 20260903124208 | 62 | 301 | 0.0 | 0.0 | 0.00 | 0.16 | 0.16 | 93 | 1014.5 |
| 20260903123207 | 62 | 301 | 0.0 | 0.0 | 0.00 | 0.16 | 0.16 | 93 | 1014.5 |
| 20260903122208 | 62 | 301 | 0.0 | 0.0 | 0.00 | 0.16 | 0.16 | 93 | 1014.6 |
| 20260903121153 | 62 | 301 | 0.0 | 0.0 | 0.00 | 0.16 | 0.16 | 93 | 1014.6 |
| 20260903120152 | 61 | 301 | 0.0 | 0.0 | 0.00 | 0.16 | 0.16 | 93 | 1014.6 |
| 20260903115154 | 61 | 301 | 0.0 | 0.9 | 0.00 | 0.16 | 0.16 | 93 | 1014.9 |
| 20260903114153 | 61 | 301 | 0.0 | 0.9 | 0.00 | 0.16 | 0.16 | 93 | 1014.9 |
| 20260903113634 | 61 | 301 | 0.0 | 0.0 | 0.00 | 0.16 | 0.16 | 93 | 1014.9 |
| 20260903112153 | 61 | 301 | 0.0 | 0.0 | 0.00 | 0.16 | 0.16 | 93 | 1014.9 |
| 20260903111152 | 61 | 301 | 0.0 | 0.0 | 0.00 | 0.16 | 0.16 | 93 | 1014.9 |
| 20260903110152 | 61 | 143 | 0.0 | 0.0 | 0.00 | 0.16 | 0.16 | 92 | 1014.9 |
| 20260903105152 | 61 | 143 | 0.0 | 0.0 | 0.00 | 0.16 | 0.16 | 92 | 1014.9 |
| 20260903104150 | 61 | 143 | 0.0 | 0.0 | 0.01 | 0.16 | 0.16 | 92 | 1014.9 |
| 20260903103154 | 61 | 143 | 0.0 | 0.0 | 0.02 | 0.16 | 0.16 | 92 | 1014.9 |
| 20260903102151 | 61 | 143 | 0.0 | 0.0 | 0.02 | 0.16 | 0.16 | 92 | 1014.9 |
| 20260903101617 | 61 | 143 | 0.0 | 0.0 | 0.05 | 0.16 | 0.16 | 92 | 1014.8 |
| 20260903100138 | 61 | 143 | 0.0 | 0.0 | 0.06 | 0.16 | 0.16 | 92 | 1014.8 |
| 20260903095137 | 61 | 143 | 0.0 | 0.9 | 0.07 | 0.16 | 0.16 | 92 | 1014.9 |
| 20260903094611 | 61 | 143 | 0.0 | 1.7 | 0.08 | 0.15 | 0.15 | 91 | 1015.0 |
| 20260903093136 | 61 | 143 | 0.0 | 0.0 | 0.07 | 0.14 | 0.14 | 91 | 1015.0 |
| 20260903092138 | 61 | 143 | 0.0 | 0.0 | 0.07 | 0.14 | 0.14 | 91 | 1015.5 |
| 20260903091131 | 61 | 143 | 0.0 | 0.0 | 0.04 | 0.11 | 0.11 | 91 | 1015.3 |
| 20260903090131 | 61 | 143 | 0.0 | 1.7 | 0.03 | 0.10 | 0.10 | 91 | 1015.3 |
| 20260903085130 | 62 | 176 | 0.0 | 2.6 | 0.03 | 0.07 | 0.09 | 90 | 1015.4 |
| 20260903084130 | 62 | 202 | 0.0 | 1.7 | 0.07 | 0.07 | 0.07 | 90 | 1015.4 |
| 20260903083607 | 62 | 202 | 0.0 | 0.0 | 0.07 | 0.07 | 0.07 | 89 | 1015.4 |
| 20260903082129 | 62 | 203 | 0.0 | 0.0 | 0.07 | 0.07 | 0.07 | 89 | 1015.5 |
| 20260903081129 | 63 | 203 | 0.0 | 0.0 | 0.07 | 0.07 | 0.07 | 88 | 1015.2 |
| 20260903080128 | 63 | 202 | 0.0 | 1.7 | 0.07 | 0.07 | 0.07 | 87 | 1015.2 |
| 20260903075128 | 63 | 301 | 0.9 | 3.5 | 0.04 | 0.04 | 0.05 | 86 | 1015.5 |
| 20260903074128 | 63 | 214 | 0.0 | 3.5 | 0.00 | 0.00 | 0.00 | 86 | 1015.5 |
| 20260903073129 | 63 | 153 | 0.9 | 2.6 | 0.00 | 0.00 | 0.00 | 86 | 1015.5 |
| 20260903072603 | 63 | 191 | 0.0 | 2.6 | 0.00 | 0.00 | 0.00 | 86 | 1015.7 |
| 20260903071125 | 63 | 173 | 0.0 | 3.5 | 0.00 | 0.00 | 0.00 | 86 | 1015.7 |
| 20260903070121 | 63 | 148 | 0.0 | 2.6 | 0.00 | 0.00 | 0.00 | 86 | 1015.7 |
| 20260903065559 | 63 | 169 | 0.9 | 5.2 | 0.00 | 0.00 | 0.00 | 86 | 1016.0 |
| 20260903064120 | 63 | 180 | 1.7 | 6.1 | 0.00 | 0.00 | 0.00 | 86 | 1016.7 |
| 20260903063120 | 63 | 209 | 0.9 | 2.6 | 0.00 | 0.00 | 0.00 | 86 | 1016.7 |
| 20260903062120 | 63 | 153 | 0.9 | 4.3 | 0.00 | 0.00 | 0.00 | 86 | 1017.0 |
| 20260903061120 | 63 | 91 | 0.0 | 3.5 | 0.00 | 0.00 | 0.00 | 86 | 1017.4 |
| 20260903060121 | 63 | 181 | 0.0 | 3.5 | 0.00 | 0.00 | 0.00 | 86 | 1017.4 |
| 20260903055121 | 63 | 191 | 0.9 | 3.5 | 0.00 | 0.00 | 0.00 | 86 | 1017.7 |
| 20260903054104 | 63 | 211 | 0.0 | 3.5 | 0.00 | 0.00 | 0.00 | 86 | 1018.1 |
| 20260903053104 | 63 | 179 | 0.0 | 1.7 | 0.00 | 0.00 | 0.00 | 86 | 1018.1 |
| 20260903052103 | 63 | 224 | 0.9 | 4.3 | 0.00 | 0.00 | 0.00 | 86 | 1017.7 |
| 20260903051535 | 63 | 193 | 0.9 | 3.5 | 0.00 | 0.00 | 0.00 | 86 | 1017.5 |
| 20260903050101 | 64 | 206 | 0.9 | 4.3 | 0.00 | 0.00 | 0.00 | 86 | 1017.5 |
| 20260903045054 | 64 | 138 | 0.9 | 4.3 | 0.00 | 0.00 | 0.00 | 87 | 1017.9 |
| 20260903044054 | 64 | 169 | 0.0 | 2.6 | 0.00 | 0.00 | 0.00 | 86 | 1018.3 |
| 20260903043054 | 64 | 169 | 0.0 | 3.5 | 0.00 | 0.00 | 0.00 | 86 | 1018.3 |
| 20260903043017 | 64 | 185 | 0.0 | 2.6 | 0.00 | 0.00 | 0.00 | 86 | 1018.2 |
| 20260903041057 | 64 | 185 | 0.0 | 1.7 | 0.00 | 0.00 | 0.00 | 86 | 1018.2 |
| 20260903040054 | 64 | 185 | 0.0 | 1.7 | 0.00 | 0.00 | 0.00 | 86 | 1018.2 |
| 20260903040014 | 64 | 188 | 0.0 | 0.0 | 0.00 | 0.00 | 0.00 | 86 | 1018.1 |
| 20260903034048 | 64 | 188 | 0.0 | 0.0 | 0.00 | 0.00 | 0.00 | 85 | 1018.2 |
| 20260903033047 | 64 | 188 | 0.0 | 2.6 | 0.00 | 0.00 | 0.00 | 86 | 1018.2 |
| 20260903032045 | 64 | 189 | 0.0 | 1.7 | 0.00 | 0.00 | 0.00 | 85 | 1018.7 |
| 20260903031043 | 64 | 189 | 0.0 | 2.6 | 0.00 | 0.00 | 0.00 | 85 | 1018.7 |
| 20260903030044 | 64 | 173 | 0.0 | 0.0 | 0.00 | 0.00 | 0.00 | 85 | 1018.7 |
| 20260903025043 | 64 | 173 | 0.0 | 0.0 | 0.00 | 0.00 | 0.00 | 85 | 1019.1 |
| 20260903024042 | 64 | 173 | 0.0 | 0.0 | 0.00 | 0.00 | 0.00 | 85 | 1019.1 |
| 20260903023035 | 64 | 173 | 0.0 | 0.0 | 0.00 | 0.00 | 0.00 | 84 | 1019.1 |
| 20260903022033 | 64 | 173 | 0.0 | 0.0 | 0.00 | 0.00 | 0.00 | 84 | 1019.1 |
| 20260903021033 | 65 | 173 | 0.0 | 0.0 | 0.00 | 0.00 | 0.00 | 84 | 1019.1 |
| 20260903020032 | 65 | 173 | 0.0 | 0.0 | 0.00 | 0.00 | 0.00 | 84 | 1019.1 |
| 20260903015507 | 65 | 173 | 0.0 | 0.0 | 0.00 | 0.00 | 0.00 | 84 | 1019.3 |
| 20260903014031 | 65 | 173 | 0.9 | 3.5 | 0.00 | 0.00 | 0.00 | 83 | 1019.2 |
| 20260903013032 | 65 | 168 | 0.9 | 3.5 | 0.00 | 0.00 | 0.00 | 82 | 1019.2 |
| 20260903012031 | 65 | 231 | 1.7 | 7.0 | 0.00 | 0.00 | 0.00 | 82 | 1018.7 |
| 20260903011508 | 65 | 152 | 1.7 | 4.3 | 0.00 | 0.00 | 0.00 | 82 | 1019.0 |
| 20260903010031 | 65 | 161 | 0.9 | 5.2 | 0.00 | 0.00 | 0.00 | 81 | 1019.0 |
| 20260903005509 | 65 | 140 | 0.0 | 6.1 | 0.00 | 0.00 | 0.00 | 81 | 1019.0 |
| 20260903004030 | 66 | 184 | 0.9 | 6.1 | 0.00 | 0.00 | 0.00 | 80 | 1019.1 |
| 20260903003020 | 66 | 140 | 0.9 | 4.3 | 0.00 | 0.00 | 0.00 | 80 | 1019.1 |
| 20260903002019 | 66 | 208 | 1.7 | 5.2 | 0.00 | 0.00 | 0.00 | 79 | 1019.2 |
| 20260903001020 | 66 | 151 | 0.0 | 2.6 | 0.00 | 0.00 | 0.00 | 78 | 1019.2 |
| 20260903000019 | 66 | 173 | 0.0 | 3.5 | 0.00 | 0.00 | 0.00 | 77 | 1019.2 |
| 20260902235018 | 67 | 187 | 0.0 | 0.0 | 0.00 | 0.00 | 0.00 | 76 | 1019.7 |
| 20260902234019 | 67 | 157 | 0.0 | 0.0 | 0.00 | 0.00 | 0.00 | 75 | 1019.8 |
| 20260902233019 | 67 | 168 | 0.0 | 0.0 | 0.00 | 0.00 | 0.00 | 75 | 1019.8 |
| 20260902232019 | 67 | 152 | 0.0 | 0.9 | 0.00 | 0.00 | 0.00 | 73 | 1019.8 |
| 20260902231020 | 67 | 170 | 0.9 | 3.5 | 0.00 | 0.00 | 0.00 | 73 | 1019.9 |
| 20260902230009 | 67 | 181 | 0.9 | 3.5 | 0.00 | 0.00 | 0.00 | 71 | 1019.9 |
| 20260902225009 | 68 | 184 | 0.0 | 2.6 | 0.00 | 0.00 | 0.00 | 71 | 1019.8 |
| 20260902224008 | 68 | 164 | 0.0 | 0.0 | 0.00 | 0.00 | 0.00 | 74 | 1020.1 |
| 20260902223007 | 68 | 164 | 0.0 | 1.7 | 0.00 | 0.00 | 0.00 | 73 | 1020.1 |
| 20260902222006 | 69 | 301 | 0.0 | 0.9 | 0.00 | 0.00 | 0.00 | 71 | 1020.3 |
| 20260902221451 | 69 | 166 | 0.9 | 4.3 | 0.00 | 0.00 | 0.00 | 71 | 1020.2 |